DJ2RF Weather Reports


time (UTC)temp
C
wind
direction
speed
KPH
gust
KPH
rain 1hr
cm
rain 24hr
cm
rain mn
cm
humidity
%
barometer
mb
20260506102323 17 360 0.0 0.0 0.00 0.00 0.00 69 1008.5
20260506101507 17 360 0.0 0.0 0.00 0.00 0.00 68 1008.6
20260506100613 16 360 0.0 0.0 0.00 0.00 0.00 71 1008.7
20260506095723 16 360 0.0 0.0 0.00 0.00 0.00 68 1008.5
20260506094822 17 360 0.0 0.0 0.00 0.00 0.00 69 1008.7
20260506093950 16 360 0.0 0.0 0.00 0.00 0.00 70 1008.6
20260506093001 16 360 0.0 0.0 0.00 0.00 0.00 69 1008.6
20260506092012 17 360 0.0 0.0 0.00 0.00 0.00 70 1008.7
20260506091136 16 360 0.0 0.0 0.00 0.00 0.00 71 1008.7
20260506090235 16 360 0.0 0.0 0.00 0.00 0.00 69 1008.7
20260506085257 16 360 0.0 0.0 0.00 0.00 0.00 71 1008.7
20260506084446 16 360 0.0 0.0 0.00 0.00 0.00 71 1008.7
20260506083621 16 360 0.0 0.0 0.00 0.00 0.00 71 1008.7
20260506082650 16 360 0.0 0.0 0.00 0.00 0.00 72 1008.7
20260506081837 16 360 0.0 0.0 0.00 0.00 0.00 72 1008.9
20260506080931 16 360 0.0 0.0 0.00 0.00 0.00 72 1008.8
20260506073206 15 360 0.0 0.0 0.00 0.00 0.00 77 1009.0
20260506072241 14 360 0.0 0.0 0.00 0.00 0.00 77 1009.1
20260506071344 14 360 0.0 0.0 0.00 0.00 0.00 78 1009.2
20260506070538 13 360 0.0 0.0 0.00 0.00 0.00 78 1009.1
20260506062344 12 360 0.0 0.0 0.00 0.00 0.00 82 1009.1
20260506061422 12 360 0.0 0.0 0.00 0.00 0.00 82 1008.8
20260506060610 12 360 0.0 0.0 0.00 0.00 0.00 83 1008.8
20260506051302 10 360 0.0 0.0 0.00 0.00 0.00 84 1009.2
20260506050449 10 360 0.0 0.0 0.00 0.00 0.00 84 1009.2
20260506044750 11 360 0.0 0.0 0.00 0.00 0.00 84 1009.2
20260506043759 11 360 0.0 0.0 0.00 0.00 0.00 84 1009.3
20260506043001 11 360 0.0 0.0 0.00 0.00 0.00 84 1009.4
20260506042119 10 360 0.0 0.0 0.00 0.00 0.00 84 1009.3
20260506041212 10 360 0.0 0.0 0.00 0.00 0.00 84 1009.5
20260506040221 10 360 0.0 0.0 0.00 0.00 0.00 85 1009.6
20260506035222 10 360 0.0 0.0 0.00 0.00 0.00 85 1009.4
20260506034312 10 360 0.0 0.0 0.00 0.00 0.00 85 1009.6
20260506033332 10 360 0.0 0.0 0.00 0.00 0.00 85 1009.8
20260506032526 10 360 0.0 0.0 0.00 0.00 0.00 86 1009.8
20260506031705 10 360 0.0 0.0 0.00 0.00 0.00 85 1009.8
20260506030832 10 360 0.0 0.0 0.00 0.00 0.00 85 1009.7
20260506030028 10 360 0.0 0.0 0.00 0.00 0.00 84 1009.8
20260506025131 10 360 0.0 0.0 0.00 0.00 0.00 84 1009.8
20260506024225 10 360 0.0 0.0 0.00 0.00 0.00 84 1010.0
20260506023239 10 360 0.0 0.0 0.00 0.00 0.00 84 1009.9
20260506022332 10 360 0.0 0.0 0.00 0.00 0.00 83 1010.0
20260506021505 10 360 0.0 0.0 0.00 0.00 0.00 83 1010.0
20260506020507 10 360 0.0 0.0 0.00 0.00 0.00 82 1010.0
20260506015510 10 360 0.0 0.0 0.00 0.00 0.00 82 1009.9
20260506014512 11 360 0.0 0.0 0.00 0.00 0.00 82 1010.0
20260506013700 11 360 0.0 0.0 0.00 0.00 0.00 83 1010.1
20260506012800 11 360 0.0 0.0 0.00 0.00 0.00 82 1010.2
20260506011832 11 360 0.0 0.0 0.00 0.00 0.00 82 1010.2
20260506010955 11 360 0.0 0.0 0.00 0.00 0.00 82 1010.0
20260506010052 11 360 0.0 0.0 0.00 0.00 0.00 81 1010.0
20260506005057 11 360 0.0 0.0 0.00 0.00 0.00 80 1010.1
20260506004133 12 360 0.0 0.0 0.00 0.00 0.00 80 1010.1
20260506003227 12 360 0.0 0.0 0.00 0.00 0.00 80 1010.2
20260506002329 12 360 0.0 0.0 0.00 0.00 0.00 80 1010.2
20260506001518 12 360 0.0 0.0 0.00 0.00 0.00 79 1010.1
20260506000651 12 360 0.0 0.0 0.00 0.00 0.00 79 1010.3
20260505235741 12 360 0.0 0.0 0.00 0.00 0.00 79 1010.3
20260505234910 12 360 0.0 0.0 0.00 0.00 0.00 78 1010.4
20260505234111 12 360 0.0 0.0 0.00 0.00 0.00 78 1010.5
20260505233129 12 360 0.0 0.0 0.00 0.00 0.00 78 1010.6
20260505232131 13 360 0.0 0.0 0.00 0.00 0.00 78 1010.7
20260505231223 13 360 0.0 0.0 0.00 0.00 0.00 78 1010.7
20260505230237 13 360 0.0 0.0 0.00 0.00 0.00 78 1010.8
20260505225257 13 360 0.0 0.0 0.00 0.00 0.00 79 1010.9
20260505224307 13 360 0.0 0.0 0.00 0.00 0.00 81 1010.7
20260505223422 13 360 0.0 0.0 0.00 0.00 0.00 82 1010.7
20260505222551 13 360 0.0 0.0 0.00 0.00 0.00 82 1010.7
20260505221737 13 360 0.0 0.0 0.00 0.00 0.00 82 1010.4
20260505220755 13 360 0.0 0.0 0.00 0.00 0.00 81 1010.3
20260505215825 13 360 0.0 0.0 0.00 0.00 0.00 81 1010.2
20260505214920 13 360 0.0 0.0 0.00 0.00 0.00 81 1010.2
20260505214008 13 360 0.0 0.0 0.00 0.00 0.00 81 1010.3
20260505213147 13 360 0.0 0.0 0.00 0.00 0.00 81 1010.5
20260505212341 13 360 0.0 0.0 0.00 0.00 0.00 81 1010.5
20260505211343 13 360 0.0 0.0 0.00 0.00 0.00 81 1010.7
20260505210507 13 360 0.0 0.0 0.00 0.00 0.00 81 1010.6
20260505205629 13 360 0.0 0.0 0.00 0.00 0.03 80 1010.6
20260505204714 13 360 0.0 0.0 0.00 0.00 0.03 80 1010.5
20260505203844 13 360 0.0 0.0 0.00 0.00 0.03 80 1010.4
20260505202902 13 360 0.0 0.0 0.00 0.00 0.03 80 1010.3
20260505202029 13 360 0.0 0.0 0.00 0.00 0.03 80 1010.2
20260505201158 13 360 0.0 0.0 0.00 0.00 0.03 80 1010.0
20260505200302 13 360 0.0 0.0 0.00 0.00 0.05 79 1009.9
20260505195459 13 360 0.0 0.0 0.00 0.00 0.05 79 1009.8
20260505194642 14 360 0.0 0.0 0.00 0.00 0.05 78 1009.8
20260505193827 14 360 0.0 0.0 0.00 0.00 0.05 78 1009.6
20260505192836 14 360 0.0 0.0 0.00 0.00 0.05 78 1009.4
20260505191849 14 360 0.0 0.0 0.00 0.00 0.05 78 1009.4
20260505191007 14 360 0.0 0.0 0.00 0.00 0.05 78 1009.4
20260505190155 14 360 0.0 0.0 0.00 0.00 0.05 78 1009.2
20260505185201 15 360 0.0 0.0 0.00 0.00 0.05 77 1008.9
20260505184217 15 360 0.0 0.0 0.00 0.00 0.05 76 1008.7
20260505183341 15 360 0.0 0.0 0.00 0.00 0.05 76 1008.6
20260505182427 15 360 0.0 0.0 0.00 0.00 0.05 75 1008.8
20260505181456 15 360 0.0 0.0 0.00 0.00 0.05 76 1008.8
20260505180502 15 360 0.0 0.0 0.00 0.00 0.05 76 1008.8
20260505175557 15 360 0.0 0.0 0.00 0.00 0.05 76 1008.7
20260505174712 16 360 0.0 0.0 0.00 0.00 0.05 75 1008.8
20260505173803 16 360 0.0 0.0 0.00 0.00 0.05 75 1008.5
20260505172958 16 360 0.0 0.0 0.00 0.00 0.05 74 1008.6
20260505172147 16 360 0.0 0.0 0.00 0.00 0.05 74 1008.6
20260505171320 16 360 0.0 0.0 0.00 0.00 0.05 72 1008.5
20260505170409 16 360 0.0 0.0 0.00 0.00 0.05 73 1008.6
20260505165539 16 360 0.0 0.0 0.00 0.00 0.05 73 1008.4
20260505164716 16 360 0.0 0.0 0.00 0.00 0.05 73 1008.6
20260505163745 16 360 0.0 0.0 0.00 0.00 0.05 72 1008.5
20260505162923 16 360 0.0 0.0 0.00 0.00 0.05 72 1008.7
20260505161952 16 360 0.0 0.0 0.00 0.00 0.05 71 1008.8
20260505161004 16 360 0.0 0.0 0.00 0.00 0.05 71 1008.6
20260505152442 17 360 0.0 0.0 0.00 0.00 0.05 70 1008.5
20260505151516 17 360 0.0 0.0 0.00 0.00 0.05 69 1008.5
20260505150653 17 360 0.0 0.0 0.00 0.00 0.05 68 1008.6
20260505124837 23 360 0.0 0.0 0.00 0.00 0.05 48 1008.0
20260505123942 23 360 0.0 0.0 0.00 0.00 0.05 49 1008.1
20260505123016 23 360 0.0 0.0 0.00 0.00 0.05 48 1008.1
20260505122147 23 360 0.0 0.0 0.00 0.00 0.05 48 1008.1
20260505121326 23 360 0.0 0.0 0.00 0.00 0.05 49 1008.1
20260505120413 23 360 0.0 0.0 0.00 0.00 0.05 49 1008.2
20260505115603 23 360 0.0 0.0 0.00 0.00 0.05 52 1008.2
20260505114707 23 360 0.0 0.0 0.00 0.00 0.05 50 1008.4
20260505113814 23 360 0.0 0.0 0.00 0.00 0.05 51 1008.4
20260505113017 23 360 0.0 0.0 0.00 0.00 0.05 50 1008.4
20260505112052 23 360 0.0 0.0 0.00 0.00 0.05 51 1008.5
20260505111242 22 360 0.0 0.0 0.00 0.00 0.05 54 1008.7
20260505110433 22 360 0.0 0.0 0.00 0.00 0.05 54 1008.7